sat.trackr.live / text

‹ back to catalog

STARLINK-37319

NORAD 68706 · 2026-081H

PAYLOAD ACTIVE UNKNOWN

§ Identity

Operator
Country
US
Launch date
2026-04-14
Launch site
AFETR
Launch vehicle
Mass (kg)
RCS (m²)

Purposes: comms

External: N2YO · Heavens-Above · Gunter

§ Orbital elements

Epoch: 2026-05-25T00:36:31.928256Z

Period
92.94 min
Inclination
53.1592°
Eccentricity
0.0000977
Mean motion
15.49318233 rev/d
Perigee alt
418.1 km
Apogee alt
419.4 km
Semi-major
6,796.9 km
B*
1.3048e-3
RAAN
40.7202°
Arg perigee
131.3757°
Mean anomaly
228.7336°
Rev number
641

§ Raw data

STARLINK-373191 68706U 26081H   26145.02536954  .00072823  00000+0  13048-2 0  99952 68706  53.1592  40.7202 0000977 131.3757 228.7336 15.49318233  6410

JSON: /api/v1/satellites/68706 · /tle

For live sub-satellite position, see the globe view (requires WebGL).

§ Visibility from observer

Set your observer location to see the next 7 days of passes ≥ 10°. The values pass through the URL so the page stays shareable.

No JS? Fill the form by hand. The geolocation button needs JavaScript.